Weather in Konovalovo

Russia / Kurgan Oblast     55°15′26″N   66°57′37″E
temp.,
°C
wind,
m/s
gust,
m/s
humid.,
%
clouds,
%
prec.,
mm/h
press.,
hPa
HPBL,
m
25 may, wed
wed2523:00+17sse4653100 0.0 101268
02:00+16sse4105494 0.0 1012125
05:00+14sse4953100 0.0 1012137
08:00+19sse51148100 0.0 1012296
11:00+25sse71135100 0.0 1012750
14:00+26sse7932100 0.0 10121598
17:00+25sse51039100 0.0 10111934
20:00+21se345284 0.0 101146
26 may, thu
thu2623:00+19ese5125110 0.1 1010199
02:00+17se41156100 0.0 1010206
05:00+16se410625 0.0 1009165
08:00+22sse59455 0.0 1009414
11:00+27se6834100 0.0 1007987
14:00+30se811246 0.0 10052603
17:00+18wnw91380100 0.3 1005360
20:00+17ne4892100 7.2 1005271
27 may, fri
fri2723:00+16nnw4495100 11.6 1004193
02:00+15nne489640 4.7 1002264
05:00+14nw71195100 11.6 1002675
08:00+10nw91494100 2.6 1005587
11:00+10wnw81388100 3.1 1009749
14:00+15wnw91164100 0.0 10111293
17:00+16wnw795598 0.0 10121763
20:00+13nw376894 0.0 1014150
28 may, sat
sat2823:00+11wnw347391 0.0 101553
02:00+9wnw357693 0.0 101568
05:00+9w348097 0.0 101776
08:00+14wnw34666 0.0 1016384
11:00+17w45484 0.0 10161893
14:00+19wnw454447 0.0 10162019
17:00+19nnw55457 0.0 10161916
20:00+15nnw2264100 0.0 101719
29 may, sun
sun2923:00+13wnw2271100 0.0 101713
02:00+12wnw3570100 0.0 101774
05:00+12nw3576100 0.0 101891
08:00+16nw4767100 0.0 1018367
11:00+20nw56510 0.0 10181543
14:00+22nw56451 0.0 10172073
17:00+22nnw574568 0.0 10172017
20:00+19nw346697 0.0 101866